RYR7LU LEMI-EGSS

Flight info

Callsign RYR7LU
Flight time N/A
Altitude 36000
Route ALT N851 MITOS N608 COMPI Y90 USKAR N863 GIROM DCT GONUP DCT TUPAR UN861 DIKRO UM185 DESNA M185 TELTU
Aircraft B738/M-SDE3FGIJ1LRWY/LB1

Departure

Time N/A
Airport Region of Murcia International Airport (LEMI)

Arrival

Time 2026-05-03 21:04
Airport London Stansted Airport (EGSS)
Time Latitude Longitude Altitude Speed Heading
2026-05-03 20:15 48.14104 -0.61930 35931 ft 469 kts 342°
2026-05-03 20:15 48.20447 -0.64029 35933 ft 469 kts 342°
2026-05-03 20:16 48.26818 -0.66144 35934 ft 468 kts 342°
2026-05-03 20:16 48.33184 -0.68262 35933 ft 468 kts 342°
2026-05-03 20:17 48.39512 -0.70373 35930 ft 468 kts 342°
2026-05-03 20:17 48.45879 -0.72502 35941 ft 467 kts 343°
2026-05-03 20:18 48.52241 -0.74635 35930 ft 467 kts 343°
2026-05-03 20:18 48.58557 -0.76759 35936 ft 466 kts 343°
2026-05-03 20:19 48.64895 -0.78894 35942 ft 466 kts 342°
2026-05-03 20:19 48.71204 -0.81027 35939 ft 466 kts 343°
2026-05-03 20:20 48.77596 -0.82918 35920 ft 471 kts 352°
2026-05-03 20:20 48.84165 -0.83196 35933 ft 472 kts 356°
2026-05-03 20:21 48.90710 -0.83272 35935 ft 472 kts 356°
2026-05-03 20:21 48.97285 -0.83427 35937 ft 472 kts 355°
2026-05-03 20:22 49.03871 -0.83650 35935 ft 472 kts 355°
2026-05-03 20:22 49.10412 -0.83892 35950 ft 472 kts 355°
2026-05-03 20:23 49.16971 -0.84135 35933 ft 473 kts 355°
2026-05-03 20:23 49.23562 -0.84375 35933 ft 472 kts 355°
2026-05-03 20:24 49.30139 -0.84615 35941 ft 472 kts 355°
2026-05-03 20:24 49.36667 -0.84853 35938 ft 472 kts 355°
2026-05-03 20:25 49.43234 -0.85093 35933 ft 471 kts 355°
2026-05-03 20:25 49.49594 -0.85327 35931 ft 471 kts 355°
2026-05-03 20:26 49.56080 -0.85566 35942 ft 470 kts 356°
2026-05-03 20:26 49.62634 -0.85807 35931 ft 470 kts 356°
2026-05-03 20:27 49.69147 -0.86048 35932 ft 469 kts 356°
2026-05-03 20:27 49.74569 -0.86250 35937 ft 468 kts 356°
2026-05-03 20:27 49.77834 -0.86371 35821 ft 470 kts 356°
2026-05-03 20:28 49.82190 -0.86535 35153 ft 471 kts 356°
2026-05-03 20:28 49.85469 -0.86656 34613 ft 472 kts 355°
2026-05-03 20:28 49.88756 -0.86779 34039 ft 473 kts 355°
2026-05-03 20:28 49.90948 -0.86861 33568 ft 475 kts 355°
2026-05-03 20:29 49.94260 -0.86986 32914 ft 476 kts 355°
2026-05-03 20:29 49.97576 -0.87110 32288 ft 476 kts 355°
2026-05-03 20:29 50.00896 -0.87174 31643 ft 478 kts 359°
2026-05-03 20:29 50.04230 -0.86858 30978 ft 480 kts
2026-05-03 20:30 50.07560 -0.86347 30361 ft 480 kts
2026-05-03 20:30 50.10834 -0.85791 29884 ft 475 kts
2026-05-03 20:30 50.14113 -0.85248 29332 ft 471 kts
2026-05-03 20:30 50.17356 -0.84745 28850 ft 465 kts
2026-05-03 20:31 50.20561 -0.84276 28361 ft 459 kts
2026-05-03 20:31 50.23735 -0.83827 27878 ft 454 kts
2026-05-03 20:31 50.26837 -0.83390 27396 ft 449 kts
2026-05-03 20:31 50.29936 -0.82951 26937 ft 445 kts
2026-05-03 20:32 50.33005 -0.82513 26460 ft 441 kts
2026-05-03 20:32 50.36059 -0.82070 25994 ft 437 kts
2026-05-03 20:32 50.39076 -0.81628 25537 ft 433 kts
2026-05-03 20:32 50.42069 -0.81188 25092 ft 430 kts
2026-05-03 20:33 50.45040 -0.80751 24644 ft 426 kts
2026-05-03 20:33 50.47946 -0.80324 24199 ft 424 kts
2026-05-03 20:33 50.50879 -0.79893 23748 ft 421 kts
2026-05-03 20:33 50.53782 -0.79467 23266 ft 418 kts
2026-05-03 20:34 50.56675 -0.79041 22754 ft 415 kts
2026-05-03 20:34 50.59537 -0.78619 22293 ft 411 kts
2026-05-03 20:34 50.62373 -0.78201 21839 ft 407 kts
2026-05-03 20:34 50.65182 -0.77794 21411 ft 403 kts
2026-05-03 20:35 50.67966 -0.77394 20964 ft 400 kts
2026-05-03 20:35 50.70689 -0.77003 20534 ft 397 kts
2026-05-03 20:35 50.73428 -0.76609 20102 ft 393 kts
2026-05-03 20:35 50.76142 -0.76218 19679 ft 390 kts
2026-05-03 20:36 50.78846 -0.75826 19251 ft 388 kts
2026-05-03 20:36 50.81513 -0.75293 18941 ft 386 kts 14°
2026-05-03 20:36 50.84039 -0.73774 18944 ft 390 kts 22°
2026-05-03 20:36 50.86549 -0.72105 18916 ft 388 kts 22°
2026-05-03 20:37 50.89042 -0.70455 18915 ft 387 kts 22°
2026-05-03 20:37 50.91503 -0.68839 18909 ft 387 kts 21°
2026-05-03 20:37 50.94009 -0.67203 18908 ft 387 kts 21°
2026-05-03 20:37 50.96507 -0.65581 18905 ft 387 kts 21°
2026-05-03 20:38 50.99010 -0.63958 18908 ft 387 kts 21°
2026-05-03 20:38 51.01471 -0.62362 18909 ft 387 kts 21°
2026-05-03 20:38 51.03970 -0.60742 18909 ft 387 kts 21°
2026-05-03 20:38 51.06464 -0.59123 18906 ft 387 kts 21°
2026-05-03 20:39 51.08959 -0.57502 18910 ft 387 kts 21°
2026-05-03 20:39 51.11455 -0.55878 18908 ft 387 kts 21°
2026-05-03 20:39 51.13956 -0.54249 18910 ft 387 kts 21°
2026-05-03 20:39 51.16424 -0.52639 18908 ft 387 kts 21°
2026-05-03 20:40 51.18922 -0.51008 18913 ft 387 kts 21°
2026-05-03 20:40 51.21415 -0.49378 18911 ft 388 kts 21°
2026-05-03 20:40 51.23916 -0.47741 18911 ft 388 kts 21°
2026-05-03 20:40 51.26421 -0.46099 18909 ft 388 kts 21°
2026-05-03 20:41 51.28920 -0.44460 18908 ft 388 kts 21°
2026-05-03 20:41 51.31384 -0.42841 18911 ft 388 kts 21°
2026-05-03 20:41 51.33862 -0.41210 18789 ft 381 kts 21°
2026-05-03 20:41 51.36310 -0.39598 18420 ft 379 kts 21°
2026-05-03 20:42 51.38752 -0.37989 17900 ft 379 kts 21°
2026-05-03 20:42 51.41190 -0.36380 17391 ft 378 kts 22°
2026-05-03 20:42 51.43598 -0.34787 16945 ft 375 kts 22°
2026-05-03 20:42 51.45977 -0.33076 16518 ft 373 kts 25°
2026-05-03 20:43 51.48310 -0.31287 16084 ft 370 kts 25°
2026-05-03 20:43 51.50630 -0.29477 15942 ft 372 kts 26°
2026-05-03 20:43 51.52963 -0.27659 15915 ft 371 kts 25°
2026-05-03 20:43 51.55254 -0.25883 15905 ft 369 kts 25°
2026-05-03 20:44 51.57571 -0.24094 15907 ft 369 kts 25°
2026-05-03 20:44 51.59892 -0.22307 15939 ft 370 kts 25°
2026-05-03 20:44 51.62217 -0.20518 15938 ft 370 kts 25°
2026-05-03 20:44 51.64543 -0.18728 15938 ft 370 kts 25°
2026-05-03 20:45 51.66868 -0.16937 15940 ft 370 kts 25°
2026-05-03 20:45 51.69185 -0.15150 15890 ft 365 kts 25°
2026-05-03 20:45 51.71470 -0.13386 15569 ft 363 kts 25°
2026-05-03 20:45 51.73723 -0.11644 15114 ft 362 kts 25°
2026-05-03 20:46 51.76004 -0.09898 14630 ft 362 kts 24°
2026-05-03 20:46 51.78306 -0.08258 14213 ft 361 kts 23°
2026-05-03 20:46 51.80607 -0.06671 13821 ft 358 kts 22°
2026-05-03 20:46 51.82899 -0.05094 13442 ft 355 kts 22°
2026-05-03 20:47 51.85126 -0.03551 13042 ft 351 kts 22°
2026-05-03 20:47 51.87337 -0.02008 12508 ft 343 kts 22°
2026-05-03 20:47 51.89531 -0.00470 11791 ft 342 kts 22°
2026-05-03 20:47 51.91676 0.01039 11505 ft 327 kts 22°
2026-05-03 20:48 51.93724 0.02481 11243 ft 314 kts 22°
2026-05-03 20:48 51.95671 0.03855 10975 ft 303 kts 22°
2026-05-03 20:48 51.97567 0.05193 10717 ft 292 kts 22°
2026-05-03 20:48 51.99410 0.06457 10437 ft 283 kts 21°
2026-05-03 20:49 52.01225 0.07648 10075 ft 279 kts 21°
2026-05-03 20:49 52.03018 0.08814 9712 ft 276 kts 21°
2026-05-03 20:49 52.04795 0.09962 9305 ft 272 kts 21°
2026-05-03 20:49 52.06547 0.11099 8928 ft 267 kts 21°
2026-05-03 20:50 52.08236 0.12200 8908 ft 260 kts 21°
2026-05-03 20:50 52.09919 0.13299 8793 ft 258 kts 21°
2026-05-03 20:50 52.11571 0.14381 8556 ft 254 kts 21°
2026-05-03 20:50 52.13188 0.15440 8150 ft 256 kts 21°
2026-05-03 20:51 52.14839 0.16528 7877 ft 256 kts 25°
2026-05-03 20:51 52.16208 0.18322 7624 ft 255 kts 56°
2026-05-03 20:51 52.16835 0.20961 7410 ft 250 kts 87°
2026-05-03 20:51 52.16559 0.23703 7210 ft 246 kts 118°
2026-05-03 20:52 52.15473 0.25796 7029 ft 243 kts 149°
2026-05-03 20:52 52.13901 0.26675 6846 ft 239 kts 176°
2026-05-03 20:52 52.12243 0.26800 6670 ft 239 kts 180°
2026-05-03 20:52 52.10591 0.26839 6543 ft 236 kts 181°
2026-05-03 20:53 52.08952 0.26866 6411 ft 234 kts 181°
2026-05-03 20:53 52.07338 0.26709 6268 ft 232 kts 197°
2026-05-03 20:53 52.05907 0.25641 6158 ft 227 kts 210°
2026-05-03 20:53 52.04559 0.24387 6050 ft 217 kts 211°
2026-05-03 20:54 52.03296 0.23179 5970 ft 204 kts 211°
2026-05-03 20:54 52.00927 0.20870 5984 ft 197 kts 211°
2026-05-03 20:54 51.99748 0.19716 5999 ft 198 kts 211°
2026-05-03 20:55 51.98563 0.18555 5999 ft 199 kts 211°
2026-05-03 20:55 51.97373 0.17392 5996 ft 199 kts 211°
2026-05-03 20:55 51.96184 0.16231 5993 ft 200 kts 211°
2026-05-03 20:55 51.95007 0.15082 5993 ft 200 kts 211°
2026-05-03 20:56 51.93831 0.13935 6003 ft 194 kts 211°
2026-05-03 20:56 51.92688 0.12818 6000 ft 190 kts 211°
2026-05-03 20:56 51.91547 0.11705 5867 ft 195 kts 211°
2026-05-03 20:56 51.90372 0.10557 5607 ft 197 kts 211°
2026-05-03 20:57 51.89204 0.09416 5342 ft 194 kts 211°
2026-05-03 20:57 51.88052 0.08291 5082 ft 191 kts 211°
2026-05-03 20:57 51.86930 0.07194 4809 ft 190 kts 211°
2026-05-03 20:57 51.85793 0.06082 4500 ft 191 kts 211°
2026-05-03 20:58 51.84657 0.04973 4192 ft 191 kts 211°
2026-05-03 20:58 51.83519 0.03866 3880 ft 191 kts 211°
2026-05-03 20:58 51.82378 0.02759 3582 ft 191 kts 211°
2026-05-03 20:58 51.81244 0.01668 3295 ft 191 kts 211°
2026-05-03 20:59 51.80102 0.00575 3015 ft 190 kts 211°
2026-05-03 20:59 51.78887 -0.00202 2737 ft 189 kts 180°
2026-05-03 20:59 51.77722 0.00573 2497 ft 184 kts 129°
2026-05-03 20:59 51.77257 0.02458 2382 ft 185 kts 89°
2026-05-03 21:00 51.77456 0.04528 2275 ft 189 kts 77°
2026-05-03 21:00 51.77549 0.05204 2231 ft 191 kts 77°
2026-05-03 21:00 51.78393 0.08445 2016 ft 189 kts 40°
2026-05-03 21:00 51.79378 0.09863 2008 ft 191 kts 40°
2026-05-03 21:01 51.80375 0.11271 2007 ft 190 kts 40°
2026-05-03 21:01 51.81337 0.12693 2007 ft 188 kts 42°
2026-05-03 21:01 51.82287 0.14125 1811 ft 184 kts 42°
2026-05-03 21:01 51.83184 0.15478 1588 ft 170 kts 41°
2026-05-03 21:02 51.84010 0.16723 1388 ft 154 kts 41°
2026-05-03 21:02 51.84774 0.17874 1161 ft 147 kts 42°
2026-05-03 21:02 51.85526 0.19003 973 ft 148 kts 42°
2026-05-03 21:02 51.86280 0.20141 783 ft 148 kts 43°
2026-05-03 21:03 51.87034 0.21278 571 ft 147 kts 43°
2026-05-03 21:03 51.87779 0.22400 358 ft 146 kts 43°
2026-05-03 21:03 51.88457 0.23414 344 ft 113 kts 43°
2026-05-03 21:03 51.88910 0.24093 350 ft 55 kts 43°
2026-05-03 21:04 51.89070 0.24419 353 ft 28 kts 65°
2026-05-03 21:04 51.89139 0.24691 353 ft 21 kts 68°
2026-05-03 21:04 51.89163 0.24870 352 ft 9 kts 121°
2026-05-03 21:04 51.89155 0.24940 354 ft 7 kts 65°
2026-05-03 21:05 51.89167 0.24964 354 ft 1 kts 45°
2026-05-03 21:05 51.89170 0.24968 353 ft 1 kts 45°
2026-05-03 21:05 51.89172 0.24972 353 ft 1 kts 45°
2026-05-03 21:05 51.89199 0.25014 351 ft 11 kts 45°
2026-05-03 21:06 51.89249 0.25135 359 ft 15 kts 58°
2026-05-03 21:06 51.89314 0.25258 355 ft 15 kts 44°
2026-05-03 21:06 51.89395 0.25377 351 ft 17 kts 41°
2026-05-03 21:06 51.89405 0.25504 351 ft 8 kts 130°
2026-05-03 21:07 51.89350 0.25571 354 ft 12 kts 148°
2026-05-03 21:07 51.89287 0.25661 351 ft 8 kts 133°
2026-05-03 21:07 51.89242 0.25739 351 ft 7 kts 133°
2026-05-03 21:07 51.89209 0.25728 351 ft 4 kts 223°
2026-05-03 21:08 51.89195 0.25707 351 ft 0 kts 223°